Simultaneous Nadir Overpasses (SNOs) Predictions

Prediction of SNOs between GOES-16 and NOAA-19 Satellite Orbit:

Table of predicted SNOs for the next 14.0 days since TLE Epoch: 4/6/2024
Index Date Time (GOES-16) GOES-16 Lat,Lon NOAA-19 Lat,Lon Distance(km) Time Diff (sec)
1 04/07/2024 14:17:26 0.03, -75.22 0.50, -77.33 240.41 80
2 04/08/2024 14:07:52 0.03, -75.23 -0.19, -74.36 99.80 80
3 04/09/2024 13:52:59 0.03, -75.24 -0.89, -71.39 440.03 80
4 04/11/2024 02:27:38 -0.03, -75.24 -0.91, -79.06 436.89 80
5 04/12/2024 02:15:24 -0.02, -75.25 -0.22, -76.09 96.60 80
6 04/13/2024 02:00:31 -0.02, -75.26 0.47, -73.12 243.80 80
7 04/15/2024 14:20:00 0.01, -75.31 0.55, -77.76 279.94 80
8 04/16/2024 14:10:25 0.01, -75.32 -0.10, -74.78 61.25 80
9 04/17/2024 13:58:12 0.00, -75.34 -0.81, -71.81 402.60 80
10 04/19/2024 02:30:12 -0.00, -75.36 -0.95, -79.50 472.44 80
